EW4496 Weather Reports


Display with metric or nautical units.
time (UTC)temp
F
wind
direction
speed
MPH
gust
MPH
rain 1hr
in
rain 24hr
in
rain mn
in
humidity
%
barometer
mb
20260507183046 72 6 0.0 3.0 0.00 0.00 0.00 64 1017.5
20260507181542 72 315 0.0 1.0 0.00 0.00 0.00 64 1017.5
20260507180050 71 358 0.0 1.0 0.00 0.00 0.00 64 1017.6
20260507174606 71 293 0.0 0.0 0.00 0.00 0.00 68 1017.7
20260507173053 70 333 0.0 1.0 0.00 0.00 0.00 69 1017.7
20260507171604 68 341 0.0 0.0 0.00 0.00 0.00 71 1017.7
20260507170053 67 351 0.0 0.0 0.00 0.00 0.00 74 1017.8
20260507164552 66 308 0.0 0.0 0.00 0.00 0.00 74 1017.8
20260507163107 66 351 0.0 0.0 0.00 0.00 0.00 77 1017.8
20260507161607 63 348 0.0 0.0 0.00 0.00 0.00 81 1017.9
20260507160108 62 313 0.0 0.0 0.00 0.00 0.00 83 1018.1
20260507154607 60 336 0.0 0.0 0.00 0.00 0.00 86 1018.1
20260507153106 60 285 0.0 0.0 0.00 0.00 0.00 85 1018.2
20260507151522 61 327 0.0 0.0 0.00 0.00 0.00 84 1018.1
20260507150026 60 326 0.0 0.0 0.00 0.00 0.00 85 1018.1
20260507144529 59 337 0.0 0.0 0.00 0.00 0.00 86 1018.2
20260507143039 58 294 0.0 1.0 0.00 0.00 0.00 88 1018.0
20260507141544 57 314 0.0 0.0 0.00 0.00 0.00 88 1017.9
20260507140037 56 290 0.0 0.0 0.00 0.00 0.00 91 1017.8
20260507134536 55 332 0.0 0.0 0.00 0.00 0.00 92 1017.7
20260507133055 53 290 0.0 0.0 0.00 0.00 0.00 94 1017.6
20260507131551 53 288 0.0 0.0 0.00 0.00 0.00 94 1017.5
20260507130104 52 278 0.0 0.0 0.00 0.00 0.00 93 1017.5
20260507124618 53 280 0.0 0.0 0.00 0.00 0.00 93 1017.3
20260507123050 53 241 0.0 0.0 0.00 0.00 0.00 93 1017.3
20260507121553 53 262 0.0 0.0 0.00 0.00 0.00 93 1017.3
20260507120051 53 262 0.0 0.0 0.00 0.00 0.00 92 1017.3
20260507114609 54 262 0.0 0.0 0.00 0.00 0.00 92 1017.3
20260507113055 54 262 0.0 0.0 0.00 0.00 0.00 92 1017.3
20260507111551 54 262 0.0 0.0 0.00 0.00 0.00 92 1017.2
20260507110051 54 262 0.0 0.0 0.00 0.00 0.00 92 1017.2
20260507104558 54 262 0.0 0.0 0.00 0.00 0.00 91 1017.2
20260507103005 55 266 0.0 0.0 0.00 0.00 0.00 90 1017.2
20260507101507 55 266 0.0 0.0 0.00 0.00 0.00 90 1017.2
20260507100006 55 266 0.0 0.0 0.00 0.00 0.00 89 1017.2
20260507094505 56 266 0.0 0.0 0.00 0.00 0.00 88 1017.3
20260507093005 57 267 0.0 0.0 0.00 0.00 0.00 87 1017.3
20260507091534 57 236 0.0 0.0 0.00 0.00 0.00 86 1017.3
20260507090022 57 226 0.0 0.0 0.00 0.00 0.00 86 1017.3
20260507084524 57 193 0.0 0.0 0.00 0.00 0.00 86 1017.4
20260507083020 58 242 0.0 0.0 0.00 0.00 0.00 85 1017.4
20260507081521 58 219 0.0 0.0 0.00 0.00 0.00 85 1017.5
20260507080020 58 233 0.0 0.0 0.00 0.00 0.00 86 1017.4
20260507074523 58 233 0.0 0.0 0.00 0.00 0.00 85 1017.4
20260507073020 59 233 0.0 0.0 0.00 0.00 0.00 84 1017.5
20260507071540 59 233 0.0 0.0 0.00 0.00 0.00 86 1017.4
20260507070050 59 235 0.0 0.0 0.00 0.00 0.00 86 1017.4
20260507064657 60 227 0.0 0.0 0.00 0.00 0.00 85 1017.3
20260507063052 60 217 0.0 0.0 0.00 0.00 0.00 84 1017.3
20260507061555 61 217 0.0 0.0 0.00 0.00 0.00 83 1017.2
20260507060055 61 266 0.0 0.0 0.00 0.00 0.00 82 1017.2
20260507054556 61 231 0.0 0.0 0.00 0.00 0.00 82 1017.1
20260507053055 62 243 0.0 0.0 0.00 0.00 0.00 82 1017.2
20260507051600 62 243 0.0 0.0 0.00 0.00 0.00 82 1017.1
20260507050054 63 308 0.0 0.0 0.00 0.00 0.00 82 1017.0
20260507044555 64 307 0.0 0.0 0.00 0.00 0.00 80 1017.0
20260507043055 65 295 0.0 0.0 0.00 0.00 0.00 78 1016.9
20260507041555 65 290 0.0 0.0 0.00 0.00 0.00 77 1016.8
20260507040055 67 323 0.0 0.0 0.00 0.00 0.00 72 1016.6
20260507034554 68 323 0.0 0.0 0.00 0.00 0.00 68 1016.3
20260507033101 69 323 0.0 0.0 0.00 0.00 0.00 66 1016.3
20260507031601 71 323 0.0 0.0 0.00 0.00 0.00 65 1016.1
20260507030109 72 323 0.0 0.0 0.00 0.00 0.00 61 1016.1
20260507024608 75 323 0.0 0.0 0.00 0.00 0.00 56 1016.0
20260507023108 76 323 0.0 0.0 0.00 0.00 0.00 53 1015.9
20260507021610 76 323 0.0 0.0 0.00 0.00 0.00 52 1015.8
20260507020108 77 345 0.0 0.0 0.00 0.00 0.00 52 1015.9
20260507014608 76 4 0.0 0.0 0.00 0.00 0.00 53 1016.0
20260507013120 76 359 0.0 0.0 0.00 0.00 0.00 53 1015.9
20260507011523 76 328 0.0 0.0 0.00 0.00 0.00 52 1016.0
20260507010026 76 41 0.0 0.0 0.00 0.00 0.00 52 1016.1
20260507004524 77 326 0.0 3.0 0.00 0.00 0.00 52 1016.0
20260507003024 76 340 0.0 1.0 0.00 0.00 0.00 53 1016.0
20260507001529 75 71 0.0 0.0 0.00 0.00 0.00 52 1016.1
20260507000023 76 51 0.0 2.0 0.00 0.00 0.00 52 1016.0
20260506234530 76 355 0.0 1.0 0.00 0.00 0.00 54 1016.2
20260506233022 76 3 0.0 3.0 0.00 0.00 0.00 53 1016.2
20260506231527 75 4 0.0 4.0 0.00 0.00 0.00 53 1016.3
20260506230026 75 37 0.0 5.0 0.00 0.00 0.00 55 1016.6
20260506224523 74 28 1.0 4.0 0.00 0.00 0.00 54 1016.9
20260506223022 74 12 0.0 0.0 0.00 0.00 0.00 54 1017.0
20260506221522 73 323 0.0 2.0 0.00 0.00 0.00 55 1017.3
20260506220028 74 36 0.0 6.0 0.00 0.00 0.00 55 1017.6
20260506214522 73 17 0.0 1.0 0.00 0.00 0.00 55 1017.8
20260506213007 73 345 0.0 4.0 0.00 0.00 0.00 55 1018.0
20260506211511 72 23 0.0 4.0 0.00 0.00 0.00 56 1018.2
20260506210012 71 7 0.0 6.0 0.00 0.00 0.00 59 1018.3
20260506204507 72 38 0.0 3.0 0.00 0.00 0.00 58 1018.5
20260506203007 73 324 0.0 3.0 0.00 0.00 0.00 55 1018.6
20260506201508 71 31 0.0 6.0 0.00 0.00 0.00 59 1018.8
20260506200023 70 345 0.0 8.0 0.00 0.00 0.00 59 1018.9
20260506194522 70 25 1.0 4.0 0.00 0.00 0.00 57 1019.0
20260506193024 70 4 0.0 3.0 0.00 0.00 0.00 59 1019.3
20260506191522 70 11 0.0 3.0 0.00 0.00 0.00 60 1019.5
20260506190022 70 35 0.0 0.0 0.00 0.00 0.00 63 1019.5
20260506184536 69 30 0.0 1.0 0.00 0.00 0.00 64 1019.7